| time (UTC) | temp C | wind direction | speed KPH | gust KPH | rain 1hr cm | rain 24hr cm | rain mn cm | humidity % | barometer mb |
| 20260504151045 | 12 | 328 | 0.0 | 1.6 | 0.00 | 0.00 | 0.00 | 74 | |
| 20260504150542 | 13 | 250 | 1.6 | 1.6 | 0.00 | 0.00 | 0.00 | 74 | |
| 20260504141008 | 13 | 352 | 1.6 | 4.8 | 0.00 | 0.08 | 0.08 | 76 | |
| 20260504140505 | 13 | 164 | 1.6 | 3.2 | 0.00 | 0.08 | 0.08 | 76 | |
| 20260504130429 | 14 | 205 | 6.4 | 6.4 | 0.00 | 0.08 | 0.08 | 74 | |
| 20260504110316 | 14 | 316 | 0.0 | 3.2 | 0.00 | 0.08 | 0.08 | 78 | |
| 20260504100234 | 15 | 200 | 6.4 | 11.3 | 0.00 | 0.08 | 0.08 | 75 | |
| 20260504081633 | 18 | 55 | 3.2 | 11.3 | 0.00 | 0.08 | 0.08 | 64 | |
| 20260504081129 | 20 | 177 | 3.2 | 4.8 | 0.00 | 0.08 | 0.08 | 62 | |
| 20260504080626 | 21 | 337 | 1.6 | 4.8 | 0.00 | 0.08 | 0.08 | 47 | |
| 20260504080122 | 21 | 296 | 1.6 | 9.7 | 0.00 | 0.08 | 0.08 | 47 | |
| 20260504050438 | 22 | 189 | 4.8 | 17.7 | 0.00 | 0.08 | 0.08 | 43 | |
| 20260504045936 | 22 | 242 | 3.2 | 9.7 | 0.00 | 0.08 | 0.08 | 46 | |
| 20260504045431 | 21 | 188 | 6.4 | 20.9 | 0.00 | 0.08 | 0.08 | 44 | |
| 20260504044927 | 21 | 193 | 12.9 | 16.1 | 0.00 | 0.08 | 0.08 | 44 | |
| 20260504044425 | 21 | 264 | 9.7 | 20.9 | 0.00 | 0.08 | 0.08 | 42 | |
| 20260504043923 | 22 | 220 | 16.1 | 20.9 | 0.00 | 0.08 | 0.08 | 41 | |
| 20260504043420 | 22 | 207 | 4.8 | 20.9 | 0.00 | 0.08 | 0.08 | 41 | |
| 20260504042917 | 22 | 184 | 6.4 | 20.9 | 0.00 | 0.08 | 0.08 | 43 | |
| 20260504042413 | 22 | 184 | 8.0 | 24.1 | 0.00 | 0.08 | 0.08 | 42 | |
| 20260504041909 | 22 | 215 | 16.1 | 20.9 | 0.00 | 0.08 | 0.08 | 41 | |
| 20260504041406 | 22 | 260 | 8.0 | 12.9 | 0.00 | 0.08 | 0.08 | 44 | |
| 20260504040901 | 22 | 192 | 8.0 | 12.9 | 0.00 | 0.08 | 0.08 | 44 | |
| 20260504040359 | 22 | 203 | 14.5 | 17.7 | 0.00 | 0.08 | 0.08 | 43 | |
| 20260504035855 | 23 | 176 | 11.3 | 17.7 | 0.00 | 0.08 | 0.08 | 43 | |
| 20260504035353 | 23 | 234 | 3.2 | 22.5 | 0.00 | 0.08 | 0.08 | 45 | |
| 20260504034850 | 24 | 202 | 6.4 | 11.3 | 0.00 | 0.08 | 0.08 | 44 | |
| 20260504034347 | 23 | 325 | 3.2 | 11.3 | 0.00 | 0.08 | 0.08 | 46 | |
| 20260504033844 | 23 | 220 | 6.4 | 9.7 | 0.00 | 0.08 | 0.08 | 43 | |
| 20260504033342 | 23 | 168 | 9.7 | 17.7 | 0.00 | 0.08 | 0.08 | 47 | |
| 20260504032838 | 22 | 165 | 3.2 | 12.9 | 0.00 | 0.08 | 0.08 | 49 | |
| 20260504032336 | 22 | 187 | 12.9 | 16.1 | 0.00 | 0.08 | 0.08 | 48 | |
| 20260504031832 | 22 | 176 | 19.3 | 24.1 | 0.00 | 0.08 | 0.08 | 48 | |
| 20260504031330 | 21 | 222 | 9.7 | 25.7 | 0.00 | 0.08 | 0.08 | 50 | |
| 20260504030826 | 21 | 196 | 17.7 | 24.1 | 0.00 | 0.08 | 0.08 | 50 | |
| 20260504030323 | 22 | 187 | 17.7 | 20.9 | 0.00 | 0.08 | 0.08 | 49 | |
| 20260504025819 | 22 | 182 | 9.7 | 17.7 | 0.00 | 0.08 | 0.08 | 51 | |
| 20260504025317 | 21 | 209 | 8.0 | 16.1 | 0.00 | 0.08 | 0.08 | 54 | |
| 20260504024813 | 22 | 187 | 19.3 | 27.4 | 0.00 | 0.08 | 0.08 | 52 | |
| 20260504024309 | 22 | 284 | 4.8 | 16.1 | 0.00 | 0.08 | 0.08 | 53 | |
| 20260504023806 | 22 | 170 | 9.7 | 29.0 | 0.00 | 0.08 | 0.08 | 52 | |
| 20260504023303 | 23 | 187 | 11.3 | 27.4 | 0.00 | 0.08 | 0.08 | 51 | |
| 20260504022759 | 22 | 242 | 6.4 | 22.5 | 0.00 | 0.08 | 0.08 | 53 | |
| 20260504022255 | 22 | 220 | 9.7 | 33.8 | 0.00 | 0.08 | 0.08 | 54 | |
| 20260504021752 | 23 | 185 | 17.7 | 27.4 | 0.00 | 0.08 | 0.08 | 51 | |
| 20260504021250 | 23 | 217 | 14.5 | 27.4 | 0.00 | 0.08 | 0.08 | 51 | |
| 20260504020746 | 23 | 225 | 11.3 | 14.5 | 0.00 | 0.08 | 0.08 | 53 | |
| 20260504020243 | 22 | 187 | 4.8 | 14.5 | 0.00 | 0.08 | 0.08 | 54 | |
| 20260504015739 | 23 | 213 | 14.5 | 17.7 | 0.00 | 0.08 | 0.08 | 53 | |
| 20260504015236 | 22 | 202 | 8.0 | 14.5 | 0.00 | 0.08 | 0.08 | 53 | |
| 20260504014731 | 23 | 253 | 8.0 | 17.7 | 0.00 | 0.08 | 0.08 | 53 | |
| 20260504014228 | 22 | 253 | 9.7 | 17.7 | 0.00 | 0.08 | 0.08 | 54 | |
| 20260504013726 | 22 | 228 | 9.7 | 20.9 | 0.00 | 0.08 | 0.08 | 53 | |
| 20260504013223 | 22 | 203 | 8.0 | 14.5 | 0.00 | 0.08 | 0.08 | 55 | |
| 20260504012720 | 22 | 208 | 8.0 | 22.5 | 0.00 | 0.08 | 0.08 | 57 | |
| 20260504012218 | 22 | 177 | 14.5 | 27.4 | 0.00 | 0.08 | 0.08 | 54 | |
| 20260504011714 | 22 | 209 | 16.1 | 22.5 | 0.00 | 0.08 | 0.08 | 54 | |
| 20260504011211 | 22 | 248 | 4.8 | 16.1 | 0.00 | 0.08 | 0.08 | 54 | |
| 20260504010707 | 22 | 187 | 11.3 | 22.5 | 0.00 | 0.08 | 0.08 | 54 | |
| 20260504010203 | 21 | 193 | 8.0 | 27.4 | 0.00 | 0.08 | 0.08 | 57 | |
| 20260504005659 | 21 | 229 | 8.0 | 17.7 | 0.00 | 0.08 | 0.08 | 57 | |
| 20260504005157 | 21 | 223 | 4.8 | 27.4 | 0.00 | 0.08 | 0.08 | 59 | |
| 20260504004654 | 21 | 235 | 9.7 | 25.7 | 0.00 | 0.08 | 0.08 | 56 | |
| 20260504004151 | 21 | 161 | 11.3 | 20.9 | 0.00 | 0.08 | 0.08 | 57 | |
| 20260504003648 | 21 | 190 | 8.0 | 22.5 | 0.00 | 0.08 | 0.08 | 58 | |
| 20260504003144 | 21 | 221 | 11.3 | 17.7 | 0.00 | 0.08 | 0.08 | 58 | |
| 20260504002641 | 21 | 201 | 16.1 | 17.7 | 0.00 | 0.08 | 0.08 | 60 | |
| 20260504002139 | 21 | 250 | 20.9 | 27.4 | 0.00 | 0.08 | 0.08 | 60 | |
| 20260504001637 | 21 | 184 | 16.1 | 30.6 | 0.00 | 0.08 | 0.08 | 60 | |
| 20260504001132 | 21 | 165 | 14.5 | 27.4 | 0.00 | 0.08 | 0.08 | 62 | |
| 20260504000630 | 21 | 198 | 11.3 | 22.5 | 0.00 | 0.08 | 0.08 | 63 | |
| 20260504000127 | 21 | 196 | 16.1 | 20.9 | 0.00 | 0.08 | 0.08 | 63 | |
| 20260503235625 | 21 | 211 | 6.4 | 12.9 | 0.00 | 0.08 | 0.08 | 65 | |
| 20260503235121 | 20 | 204 | 12.9 | 20.9 | 0.00 | 0.08 | 0.08 | 63 | |
| 20260503234620 | 20 | 205 | 11.3 | 20.9 | 0.00 | 0.08 | 0.08 | 64 | |
| 20260503234118 | 20 | 199 | 6.4 | 20.9 | 0.00 | 0.08 | 0.08 | 65 | |
| 20260503233614 | 20 | 200 | 12.9 | 17.7 | 0.00 | 0.08 | 0.08 | 66 | |
| 20260503233110 | 20 | 214 | 14.5 | 20.9 | 0.00 | 0.08 | 0.08 | 67 | |
| 20260503232607 | 19 | 180 | 11.3 | 14.5 | 0.00 | 0.08 | 0.08 | 69 | |
| 20260503232104 | 19 | 213 | 9.7 | 16.1 | 0.00 | 0.08 | 0.08 | 70 | |
| 20260503231602 | 19 | 206 | 6.4 | 16.1 | 0.00 | 0.08 | 0.08 | 70 | |
| 20260503231058 | 18 | 189 | 12.9 | 20.9 | 0.00 | 0.08 | 0.08 | 71 | |
| 20260503230555 | 18 | 204 | 11.3 | 14.5 | 0.00 | 0.08 | 0.08 | 72 | |
| 20260503230053 | 18 | 192 | 9.7 | 14.5 | 0.00 | 0.08 | 0.08 | 73 | |
| 20260503225549 | 18 | 193 | 12.9 | 16.1 | 0.00 | 0.08 | 0.08 | 74 | |
| 20260503225044 | 18 | 199 | 1.6 | 9.7 | 0.00 | 0.08 | 0.08 | 77 | |
| 20260503224542 | 18 | 203 | 4.8 | 9.7 | 0.00 | 0.08 | 0.08 | 78 | |
| 20260503224040 | 18 | 204 | 4.8 | 6.4 | 0.00 | 0.08 | 0.08 | 79 | |
| 20260503223538 | 18 | 186 | 0.0 | 9.7 | 0.00 | 0.08 | 0.08 | 80 | |
| 20260503223033 | 18 | 193 | 4.8 | 4.8 | 0.00 | 0.08 | 0.08 | 81 | |
| 20260503222532 | 18 | 190 | 0.0 | 3.2 | 0.00 | 0.08 | 0.08 | 81 | |
| 20260503222029 | 18 | 194 | 1.6 | 4.8 | 0.00 | 0.08 | 0.08 | 82 | |
| 20260503221527 | 18 | 172 | 3.2 | 3.2 | 0.00 | 0.08 | 0.08 | 83 | |
| 20260503221024 | 18 | 192 | 1.6 | 3.2 | 0.00 | 0.08 | 0.08 | 83 | |
| 20260503220520 | 18 | 201 | 3.2 | 6.4 | 0.00 | 0.08 | 0.08 | 83 | |
| 20260503220017 | 18 | 184 | 3.2 | 6.4 | 0.00 | 0.08 | 0.08 | 84 | |
| 20260503215514 | 18 | 188 | 3.2 | 3.2 | 0.00 | 0.08 | 0.08 | 85 | |
| 20260503215012 | 18 | 199 | 3.2 | 9.7 | 0.00 | 0.08 | 0.08 | 85 | |
| 20260503214510 | 17 | 180 | 8.0 | 11.3 | 0.00 | 0.08 | 0.08 | 86 | |
| 20260503214006 | 17 | 183 | 3.2 | 4.8 | 0.00 | 0.08 | 0.08 | 87 | |
| 20260503213505 | 17 | 173 | 0.0 | 1.6 | 0.00 | 0.08 | 0.08 | 87 | |
| 20260503213001 | 17 | 91 | 0.0 | 1.6 | 0.00 | 0.08 | 0.08 | 87 | |
| 20260503212458 | 17 | 184 | 0.0 | 1.6 | 0.00 | 0.08 | 0.08 | 87 | |
| 20260503211955 | 17 | 183 | 3.2 | 4.8 | 0.00 | 0.08 | 0.08 | 88 | |
| 20260503211452 | 17 | 107 | 0.0 | 1.6 | 0.00 | 0.08 | 0.08 | 88 | |
| 20260503210948 | 17 | 188 | 1.6 | 3.2 | 0.00 | 0.08 | 0.08 | 89 | |
| 20260503210445 | 17 | 162 | 1.6 | 3.2 | 0.00 | 0.08 | 0.08 | 89 | |
| 20260503205945 | 17 | 88 | 0.0 | 3.2 | 0.00 | 0.08 | 0.08 | 89 | |
| 20260503205442 | 17 | 188 | 1.6 | 1.6 | 0.00 | 0.08 | 0.08 | 89 | |
| 20260503204938 | 17 | 97 | 1.6 | 1.6 | 0.00 | 0.08 | 0.08 | 89 | |
| 20260503204436 | 17 | 179 | 0.0 | 3.2 | 0.00 | 0.08 | 0.08 | 89 | |
| 20260503203933 | 17 | 99 | 0.0 | 1.6 | 0.00 | 0.08 | 0.08 | 89 | |
| 20260503203430 | 17 | 178 | 1.6 | 1.6 | 0.00 | 0.08 | 0.08 | 89 | |
| 20260503202927 | 17 | 189 | 3.2 | 4.8 | 0.00 | 0.08 | 0.08 | 89 | |
| 20260503202426 | 17 | 125 | 0.0 | 4.8 | 0.13 | 0.08 | 0.08 | 89 | |
| 20260503201924 | 18 | 191 | 1.6 | 4.8 | 0.13 | 0.08 | 0.08 | 89 | |
| 20260503201420 | 18 | 201 | 1.6 | 6.4 | 0.00 | 0.05 | 0.05 | 88 | |
| 20260503200918 | 18 | 193 | 3.2 | 11.3 | 0.00 | 0.05 | 0.05 | 89 | |
| 20260503200414 | 18 | 201 | 3.2 | 12.9 | 0.00 | 0.05 | 0.05 | 90 | |
| 20260503195911 | 18 | 72 | 3.2 | 4.8 | 0.00 | 0.05 | 0.05 | 92 | |
| 20260503195408 | 18 | 186 | 1.6 | 4.8 | 0.00 | 0.05 | 0.05 | 93 | |
| 20260503194905 | 18 | 181 | 3.2 | 3.2 | 0.00 | 0.05 | 0.05 | 93 | |
| 20260503194401 | 18 | 159 | 3.2 | 6.4 | 0.00 | 0.05 | 0.05 | 94 | |
| 20260503193857 | 18 | 163 | 3.2 | 4.8 | 0.00 | 0.05 | 0.05 | 95 | |
| 20260503193353 | 18 | 160 | 4.8 | 9.7 | 0.00 | 0.05 | 0.05 | 95 | |
| 20260503192849 | 18 | 157 | 0.0 | 3.2 | 0.00 | 0.05 | 0.05 | 96 | |
| 20260503192344 | 18 | 160 | 1.6 | 6.4 | 0.00 | 0.05 | 0.05 | 96 | |
| 20260503191841 | 18 | 155 | 0.0 | 3.2 | 0.00 | 0.05 | 0.05 | 96 | |
| 20260503191338 | 18 | 154 | 1.6 | 1.6 | 0.00 | 0.05 | 0.05 | 96 | |
| 20260503190835 | 18 | 160 | 0.0 | 1.6 | 0.00 | 0.05 | 0.05 | 96 | |
| 20260503190332 | 18 | 157 | 0.0 | 0.0 | 0.00 | 0.05 | 0.05 | 96 | |
| 20260503185829 | 18 | 157 | 0.0 | 1.6 | 0.00 | 0.05 | 0.05 | 96 | |
| 20260503185325 | 18 | 156 | 0.0 | 0.0 | 0.00 | 0.05 | 0.05 | 96 | |
| 20260503184825 | 18 | 157 | 0.0 | 0.0 | 0.00 | 0.05 | 0.05 | 96 | |
| 20260503184322 | 18 | 157 | 0.0 | 0.0 | 0.00 | 0.05 | 0.05 | 95 | |
| 20260503183817 | 18 | 153 | 3.2 | 4.8 | 0.00 | 0.05 | 0.05 | 95 | |
| 20260503183315 | 18 | 155 | 0.0 | 0.0 | 0.00 | 0.05 | 0.05 | 95 | |
| 20260503182812 | 18 | 155 | 0.0 | 0.0 | 0.00 | 0.05 | 0.05 | 95 | |
| 20260503182311 | 18 | 155 | 0.0 | 0.0 | 0.00 | 0.05 | 0.05 | 95 | |
| 20260503181808 | 18 | 155 | 0.0 | 1.6 | 0.00 | 0.05 | 0.05 | 95 | |
| 20260503181305 | 18 | 156 | 0.0 | 0.0 | 0.00 | 0.05 | 0.05 | 95 | |
| 20260503180801 | 18 | 158 | 0.0 | 0.0 | 0.00 | 0.05 | 0.05 | 95 | |
| 20260503180259 | 18 | 156 | 1.6 | 1.6 | 0.00 | 0.05 | 0.05 | 95 | |
| 20260503175755 | 18 | 202 | 1.6 | 4.8 | 0.00 | 0.05 | 0.05 | 95 | |
| 20260503175254 | 18 | 225 | 1.6 | 4.8 | 0.00 | 0.05 | 0.05 | 95 | |
| 20260503174754 | 18 | 180 | 3.2 | 3.2 | 0.00 | 0.05 | 0.05 | 94 | |
| 20260503174253 | 18 | 190 | 4.8 | 4.8 | 0.00 | 0.05 | 0.05 | 94 | |
| 20260503173748 | 18 | 186 | 3.2 | 4.8 | 0.18 | 0.05 | 0.05 | 94 | |
| 20260503173244 | 18 | 212 | 1.6 | 3.2 | 0.18 | 0.05 | 0.05 | 94 | |
| 20260503172741 | 18 | 202 | 1.6 | 1.6 | 0.00 | 0.03 | 0.03 | 94 | |
| 20260503172238 | 18 | 217 | 1.6 | 4.8 | 0.00 | 0.03 | 0.03 | 93 | |
| 20260503171735 | 18 | 193 | 3.2 | 6.4 | 0.00 | 0.03 | 0.03 | 93 | |
| 20260503171232 | 18 | 186 | 3.2 | 4.8 | 0.00 | 0.03 | 0.03 | 93 | |
| 20260503170729 | 18 | 226 | 3.2 | 4.8 | 0.00 | 0.03 | 0.03 | 92 | |
| 20260503170226 | 18 | 341 | 0.0 | 4.8 | 0.00 | 0.03 | 0.03 | 92 | |
| 20260503160147 | 22 | 175 | 16.1 | 20.9 | 0.00 | 0.00 | 0.00 | 87 |